Simultaneous Nadir Overpasses (SNOs) Predictions

Prediction of SNOs between GOES-15 and NPP Satellite Orbit:

Table of predicted SNOs for the next 14.0 days since TLE Epoch: 4/13/2024
Index Date Time (GOES-15) GOES-15 Lat,Lon NPP Lat,Lon Distance(km) Time Diff (sec)
1 04/14/2024 09:28:08 -0.10, 61.28 -0.62, 59.02 257.86 80
2 04/15/2024 09:12:03 -0.10, 61.29 0.39, 63.55 257.33 80
3 04/16/2024 21:31:12 0.10, 61.26 0.77, 58.28 340.26 80
4 04/17/2024 21:15:07 0.10, 61.27 -0.24, 62.81 175.07 80
5 04/19/2024 09:34:23 -0.10, 61.33 -0.98, 57.51 436.64 80
6 04/20/2024 09:18:19 -0.10, 61.34 0.04, 62.04 78.49 80
7 04/22/2024 21:18:43 0.10, 61.33 0.09, 61.29 4.97 80
8 04/25/2024 09:21:55 -0.09, 61.41 -0.28, 60.51 102.39 80
9 04/26/2024 09:05:49 -0.10, 61.43 0.68, 65.05 411.87 80
